Kingsville, TX

6:19 AM CST on December 11, 2016 (GMT -0600)
Kingsville Naval Air Station

Weather History for KNQI - January, 2014

Change the Weather History Date:

Friday, January 24, 2014

  Actual Average Record
Temperature  
Mean Temperature 34 °F -  
Max Temperature 37 °F 68 °F 84 °F (2013)
Min Temperature 32 °F 48 °F 32 °F (2014)
Degree Days  
Heating Degree Days 30    
Moisture  
Dew Point 31 °F    
Average Humidity 87    
Maximum Humidity 96    
Minimum Humidity 73    
Precipitation  
Precipitation 0.01 in - - ()
Sea Level Pressure  
Sea Level Pressure 30.61 in    
Wind  
Wind Speed 16 mph (NNW)    
Max Wind Speed 24 mph    
Max Gust Speed 30 mph    
Visibility 8 miles    
Events Rain , Snow    
Averages and records for this station are not official NWS values.
T = Trace of Precipitation, MM = Missing Value Source: NWS Daily Summary

Daily Weather History Graph

Daily Weather History Graph

Search for Another Location

Airport or City:

Trip Planner

Search our weather history database for the weather conditions in past years. The results will help you decide how hot, cold, wet, or windy it might be!

Date:

Astronomy

Jan. 24, 2014 Rise Set
Actual Time 7:20 AM CST 6:06 PM CST
Civil Twilight 6:56 AM CST 6:30 PM CST
Nautical Twilight 6:27 AM CST 6:59 PM CST
Astronomical Twilight 5:59 AM CST 7:27 PM CST
Moon 12:56 AM CST (1/24) 12:20 PM CST (1/24)
Length of Visible Light 11h 34m
Length of Day
10h 45m
Last Quarter, 44% of the Moon is Illuminated
Jan 24
Last Quarter
Jan 30
New
Feb 6
First Quarter
Feb 14
Full
Feb 22
Last Quarter

Hourly Weather History & Observations

Time (CST) Temp. Windchill Dew Point Humidity Pressure Visibility Wind Dir Wind Speed Gust Speed Precip Events Conditions
12:26 AM 37.9 °F 29.2 °F 35.1 °F 89% 30.57 in 5.0 mi North 15.0 mph 23.0 mph 0.00 in Snow Light Snow
12:38 AM 37.9 °F 28.5 °F 36.0 °F 93% 30.58 in 3.0 mi North 17.3 mph 23.0 mph 0.00 in Snow Light Snow
12:56 AM 37.9 °F 30.5 °F 36.0 °F 93% 30.57 in 3.0 mi North 11.5 mph - 0.00 in Snow Light Snow
1:28 AM 37.0 °F 28.1 °F 36.0 °F 96% 30.60 in 4.0 mi North 15.0 mph - 0.01 in Snow Light Snow
1:56 AM 36.0 °F 25.0 °F 34.0 °F 93% 30.60 in 5.0 mi North 20.7 mph 26.5 mph 0.01 in Snow Light Snow
2:14 AM 36.0 °F 26.3 °F 34.0 °F 93% 30.61 in 5.0 mi North 16.1 mph 25.3 mph 0.00 in Snow Light Snow
2:23 AM 35.1 °F 23.0 °F 34.0 °F 96% 30.62 in 5.0 mi NNW 24.2 mph 29.9 mph 0.00 in Snow Light Snow
2:46 AM 34.0 °F 22.7 °F 33.1 °F 96% 30.62 in 6.0 mi North 19.6 mph - 0.00 in   Overcast
2:56 AM 34.0 °F 23.0 °F 33.1 °F 96% 30.61 in 8.0 mi North 18.4 mph 28.8 mph 0.00 in Snow Light Snow
3:06 AM 34.0 °F 22.7 °F 33.1 °F 96% 30.62 in 9.0 mi North 19.6 mph 27.6 mph 0.00 in   Overcast
3:15 AM 34.0 °F 22.7 °F 32.0 °F 92% 30.63 in 10.0 mi North 19.6 mph 28.8 mph 0.00 in   Overcast
3:56 AM 34.0 °F 23.4 °F 32.0 °F 92% 30.62 in 8.0 mi North 17.3 mph - 0.00 in   Overcast
4:30 AM 34.0 °F 23.4 °F 32.0 °F 92% 30.63 in 9.0 mi North 17.3 mph 28.8 mph 0.00 in Snow Light Snow
4:51 AM 33.8 °F 22.8 °F 32.0 °F 93% 30.64 in 8.0 mi NNW 18.4 mph 26.5 mph 0.00 in Snow Light Snow
4:56 AM 33.1 °F 22.2 °F 32.0 °F 96% 30.63 in 8.0 mi NNW 17.3 mph - 0.00 in Rain Light Rain
5:21 AM 33.1 °F 23.0 °F 30.9 °F 92% 30.65 in 10.0 mi NNW 15.0 mph 26.5 mph 0.00 in   Overcast
5:36 AM 33.1 °F 21.5 °F 30.9 °F 92% 30.65 in 10.0 mi North 19.6 mph 25.3 mph 0.00 in   Overcast
5:56 AM 33.1 °F 22.6 °F 30.9 °F 92% 30.64 in 10.0 mi NNW 16.1 mph 25.3 mph 0.00 in   Overcast
6:15 AM 33.1 °F 21.5 °F 30.0 °F 89% 30.66 in 10.0 mi NNW 19.6 mph 27.6 mph N/A   Overcast
6:31 AM 33.1 °F 21.9 °F 30.9 °F 92% 30.67 in 7.0 mi NNW 18.4 mph - 0.00 in Snow Light Snow
6:36 AM 32.0 °F 20.1 °F 30.9 °F 96% 30.67 in 5.0 mi NNW 19.6 mph - 0.00 in   Light Freezing Drizzle
6:56 AM 32.0 °F 21.2 °F 30.9 °F 96% 30.66 in 5.0 mi North 16.1 mph 24.2 mph 0.00 in   Light Freezing Drizzle
7:17 AM 32.0 °F 21.2 °F 30.0 °F 92% 30.68 in 6.0 mi North 16.1 mph - 0.00 in   Light Freezing Drizzle
7:56 AM 32.0 °F 20.5 °F 30.9 °F 96% 30.68 in 10.0 mi North 18.4 mph 23.0 mph 0.00 in   Overcast
8:16 AM 32.0 °F 20.8 °F 30.0 °F 92% 30.69 in 10.0 mi North 17.3 mph 24.2 mph 0.00 in   Light Freezing Drizzle
8:28 AM 32.0 °F 22.1 °F 30.0 °F 92% 30.70 in 10.0 mi NNW 13.8 mph 23.0 mph 0.00 in   Light Freezing Drizzle
8:38 AM 32.0 °F 20.8 °F 30.0 °F 92% 30.70 in 10.0 mi NNW 17.3 mph 25.3 mph 0.00 in   Light Freezing Drizzle
8:41 AM 32.0 °F 20.8 °F 30.0 °F 92% 30.70 in 10.0 mi NNW 17.3 mph 25.3 mph 0.00 in   Overcast
8:56 AM 32.0 °F 21.6 °F 30.0 °F 92% 30.69 in 10.0 mi NNW 15.0 mph - 0.00 in   Overcast
9:26 AM 32.0 °F 20.8 °F 28.9 °F 88% 30.71 in 10.0 mi North 17.3 mph 28.8 mph N/A   Overcast
9:56 AM 32.0 °F 20.5 °F 28.9 °F 88% 30.71 in 10.0 mi NNW 18.4 mph - N/A   Overcast
10:56 AM 32.0 °F 20.5 °F 28.9 °F 88% 30.71 in 10.0 mi NNW 18.4 mph - N/A   Overcast
11:56 AM 33.1 °F 22.6 °F 28.9 °F 85% 30.67 in 10.0 mi NNW 16.1 mph - N/A   Overcast
12:56 PM 34.0 °F 23.4 °F 28.9 °F 82% 30.61 in 10.0 mi North 17.3 mph - N/A   Overcast
1:56 PM 36.0 °F 27.1 °F 28.9 °F 76% 30.57 in 10.0 mi NNW 13.8 mph - N/A   Overcast
2:56 PM 37.0 °F 28.9 °F 28.9 °F 73% 30.54 in 10.0 mi North 12.7 mph - N/A   Overcast
3:56 PM 37.0 °F 30.4 °F 28.9 °F 73% 30.52 in 10.0 mi North 9.2 mph - N/A   Overcast
4:56 PM 37.0 °F 31.0 °F 28.9 °F 73% 30.52 in 10.0 mi NNW 8.1 mph - N/A   Overcast
5:56 PM 37.0 °F 29.8 °F 28.9 °F 73% 30.51 in 10.0 mi North 10.4 mph - N/A   Overcast
6:12 PM 37.0 °F 31.0 °F 28.9 °F 73% 30.51 in 10.0 mi North 8.1 mph - N/A   Overcast
6:56 PM 37.0 °F 30.4 °F 28.9 °F 73% 30.50 in 10.0 mi North 9.2 mph - N/A   Overcast
7:56 PM 37.0 °F 31.6 °F 28.9 °F 73% 30.50 in 10.0 mi NNW 6.9 mph - N/A   Overcast
8:56 PM 37.0 °F 33.3 °F 28.9 °F 73% 30.48 in 10.0 mi NNW 4.6 mph - N/A   Overcast
9:56 PM 37.0 °F 33.3 °F 28.9 °F 73% 30.46 in 10.0 mi NW 4.6 mph - N/A   Overcast
10:56 PM 37.0 °F 33.3 °F 30.0 °F 76% 30.45 in 10.0 mi West 4.6 mph - N/A   Overcast
11:56 PM 37.0 °F 33.3 °F 30.0 °F 76% 30.43 in 10.0 mi West 4.6 mph - N/A   Overcast